Change the Weather History Date:

Tuesday, December 13, 2011

  Actual Average Record
Temperature  
Mean Temperature 11 °F 22 °F  
Max Temperature 30 °F 32 °F 57 °F (1934)
Min Temperature -9 °F 12 °F -33 °F (1922)
Degree Days  
Heating Degree Days 54 43  
Month to date heating degree days 565 543  
Since 1 July heating degree days 2538 2806  
Cooling Degree Days 0 0  
Month to date cooling degree days 0 0  
Year to date cooling degree days 151 162  
Moisture  
Dew Point 2 °F    
Average Humidity 77    
Maximum Humidity 95    
Minimum Humidity 58    
Precipitation  
Precipitation 0.00 in 0.01 in 0.32 in (1929)
Month to date precipitation 0.01 0.09  
Year to date precipitation 5.95 10.77  
Snow  
Snow 0.00 in - - ()
Snow Depth 0.00 in    
Sea Level Pressure  
Sea Level Pressure 29.93 in    
Wind  
Wind Speed 4 mph (NW)    
Max Wind Speed 29 mph    
Max Gust Speed 36 mph    
Visibility 4 miles    
Events Fog    
T = Trace of Precipitation, MM = Missing Value Source: NWS Daily Summary

Daily Weather History Graph

Daily Weather History Graph

Search for Another Location

Airport or City:

Trip Planner

Search our weather history database for the weather conditions in past years. The results will help you decide how hot, cold, wet, or windy it might be!

Date:

Astronomy

Dec. 13, 2011 Rise Set
Actual Time 8:13 AM MST 4:33 PM MST
Civil Twilight 7:36 AM MST 5:10 PM MST
Nautical Twilight 6:56 AM MST 5:50 PM MST
Astronomical Twilight 6:18 AM MST 6:29 PM MST
Moon 8:02 PM MST (12/13) 10:17 AM MST (12/13)
Length of Visible Light 9h 34m
Length of Day
8h 20m
Waning Gibbous, 90% of the Moon is Illuminated
Dec 13
Waning Gibbous
Dec 17
Last Quarter
Dec 24
New
Dec 31
First Quarter
Jan 9
Full

Hourly Weather History & Observations

Time (MST) Temp. Windchill Dew Point Humidity Pressure Visibility Wind Dir Wind Speed Gust Speed Precip Events Conditions
12:43 AM 6.8 °F - 3.2 °F 85% 29.90 in 0.2 mi Calm Calm - N/A Fog Light Freezing Fog
12:56 AM 7.0 °F - 3.9 °F 87% 30.07 in 0.2 mi Calm Calm - N/A Fog Light Freezing Fog
1:03 AM 6.8 °F - 3.2 °F 85% 29.89 in 0.2 mi Calm Calm - N/A Fog Light Freezing Fog
1:11 AM 8.6 °F - 3.2 °F 79% 29.89 in 0.2 mi Calm Calm - N/A Fog Light Freezing Fog
1:56 AM 7.0 °F - 3.9 °F 87% 30.05 in 0.2 mi Calm Calm - N/A Fog Light Freezing Fog
2:53 AM 3.2 °F - -0.4 °F 85% 29.87 in 0.2 mi Calm Calm - N/A Fog Light Freezing Fog
2:56 AM 3.9 °F - 1.0 °F 88% 30.06 in 0.2 mi Calm Calm - N/A Fog Light Freezing Fog
3:10 AM 3.2 °F - 1.4 °F 92% 29.87 in 0.2 mi Calm Calm - N/A Fog Light Freezing Fog
3:21 AM 3.2 °F - -0.4 °F 85% 29.86 in 0.2 mi Calm Calm - N/A Fog Light Freezing Fog
3:56 AM 1.9 °F - -0.9 °F 88% 30.05 in 0.2 mi Calm Calm - N/A Fog Light Freezing Fog
4:24 AM 3.2 °F - -0.4 °F 85% 29.85 in 0.2 mi Calm Calm - N/A Fog Light Freezing Fog
4:56 AM 1.9 °F - -0.9 °F 88% 30.05 in 0.2 mi Calm Calm - N/A Fog Light Freezing Fog
5:39 AM -4.0 °F -14.6 °F -7.6 °F 85% 29.84 in 0.5 mi North 4.6 mph - N/A Fog Light Freezing Fog
5:56 AM -5.1 °F -15.8 °F -9.0 °F 83% 30.06 in 0.5 mi NNE 4.6 mph - N/A Fog Light Freezing Fog
6:56 AM -8.0 °F -19.2 °F -11.9 °F 83% 30.08 in 0.8 mi North 4.6 mph - N/A   Mist
7:07 AM -7.6 °F -16.5 °F -13.0 °F 77% 29.84 in 1.2 mi North 3.5 mph - N/A   Haze
7:39 AM -7.6 °F - -11.2 °F 84% 29.84 in 0.8 mi Calm Calm - N/A   Mist
7:56 AM -7.1 °F - -11.9 °F 79% 30.08 in 0.5 mi Calm Calm - N/A   Haze
8:14 AM -7.6 °F - -13.0 °F 77% 29.83 in 0.2 mi Calm Calm - N/A   Haze
8:56 AM -7.1 °F - -11.0 °F 83% 30.07 in 0.2 mi Calm Calm - N/A Fog Light Freezing Fog
9:21 AM -2.2 °F - -7.6 °F 78% 29.83 in 1.0 mi Calm Calm - N/A   Haze
9:32 AM -2.2 °F -10.4 °F -7.6 °F 78% 29.83 in 4.0 mi North 3.5 mph - N/A   Haze
9:42 AM -2.2 °F -10.4 °F -7.6 °F 78% 29.83 in 10.0 mi NNE 3.5 mph - N/A   Scattered Clouds
9:56 AM -0.0 °F - -7.1 °F 72% 30.06 in 10.0 mi Calm Calm - N/A   Clear
10:56 AM 6.1 °F - 1.0 °F 80% 30.05 in 10.0 mi Calm Calm - N/A   Clear
11:56 AM 14.0 °F - 9.0 °F 80% 29.99 in 10.0 mi Calm Calm - N/A   Clear
12:56 PM 19.0 °F - 15.1 °F 85% 29.95 in 10.0 mi Calm Calm - N/A   Clear
1:56 PM 19.0 °F - 15.1 °F 85% 29.93 in 10.0 mi Calm Calm - N/A   Clear
2:56 PM 19.9 °F - 16.0 °F 85% 29.92 in 10.0 mi Calm Calm - N/A   Clear
3:56 PM 16.0 °F - 12.0 °F 84% 29.93 in 10.0 mi Calm Calm - N/A   Clear
4:56 PM 16.0 °F 7.4 °F 10.0 °F 77% 29.91 in 10.0 mi SW 5.8 mph - N/A   Clear
5:56 PM 12.9 °F - 8.1 °F 81% 29.92 in 10.0 mi Calm Calm - N/A   Clear
6:56 PM 19.9 °F 13.4 °F 10.9 °F 68% 29.90 in 10.0 mi SW 4.6 mph - N/A   Clear
7:56 PM 14.0 °F - 10.0 °F 84% 29.90 in 10.0 mi Calm Calm - N/A   Clear
8:56 PM 28.0 °F 15.3 °F 17.1 °F 63% 29.83 in 10.0 mi WSW 18.4 mph 27.6 mph N/A   Clear
9:56 PM 28.9 °F 17.3 °F 16.0 °F 58% 29.81 in 10.0 mi WSW 16.1 mph - N/A   Clear
10:56 PM 30.0 °F 15.7 °F 17.1 °F 59% 29.79 in 10.0 mi West 26.5 mph 33.4 mph N/A   Clear
11:56 PM 28.0 °F 16.1 °F 17.1 °F 63% 29.81 in 10.0 mi West 16.1 mph - N/A   Clear